Location: Newark
(12.4436°N, 0.6167°W)
Time: 19:47:37
(UTC+00:00)

deb Explorer IX - Pass Details

Date: 10 December 2019
Orbit: 548 x 1101 km, 38.8° (Epoch: 18 January)

Event Time Altitude Azimuth Distance (km) Brightness Sun altitude
Rises 14:25:40 0° 248° (WSW) 2,920 ? 38.9°
Reaches altitude 10° 14:27:58 10° 256° (WSW) 2,082 ? 38.5°
Maximum altitude 14:32:32 40° 326° (NW) 1,076 ? 37.7°
Drops below altitude 10° 14:37:50 10° 35° (NE) 2,425 ? 36.8°
Sets 14:40:43 0° 42° (NE) 3,463 ? 36.2°
